Wind_Speed
59 56 51 57 59 50 50 53 52 52 52 53 57 59 59 59 52 48 45 46 44 42 43 44 43 43 45 43 45 44 42 41 37 36 39 40 40 37 26 31 35 37 36 34
65 62 56 62 56 53 57 56 57 57 59 61 61 61 59 59 51 49 50 50 47 49 48 49 48 47 45 46 46 44 43 42 44 46 46 46 45 44 40 42 42 43 43 46
70 69 60 58 59 61 59 63 62 68 69 64 67 69 60 54 52 52 51 48 47 48 53 54 52 49 50 52 51 50 49 47 46 49 49 50 52 49 45 49 51 49 46 50
73 75 64 63 60 59 62 64 62 60 55 59 63 66 61 57 57 59 58 54 49 51 56 59 56 55 54 57 56 54 51 53 51 52 51 57 55 53 55 62 60 60 59 54
71 78 71 64 61 63 62 65 67 59 57 61 60 61 58 57 58 60 57 53 52 56 60 63 63 58 58 54 55 53 53 55 55 59 59 49 54 59 66 64 65 65 65 63
76 70 78 77 69 67 67 71 61 61 64 65 61 60 63 66 63 63 62 58 54 55 64 61 60 60 60 63 63 63 56 48 47 48 58 64 61 67 69 70 71 74 72 63
76 75 67 78 79 74 75 70 64 65 67 67 68 65 69 67 65 62 63 67 66 65 65 67 67 68 64 63 58 58 60 64 69 72 73 72 72 66 65 67 70 70 69 64
78 78 72 73 76 81 80 71 63 64 68 70 71 72 68 67 68 68 68 70 69 71 69 70 70 72 71 72 73 75 76 76 79 81 81 83 87 85 75 73 75 76 73 71
78 82 83 82 80 79 78 74 66 65 67 69 72 75 72 78 77 75 74 76 78 76 74 78 78 80 80 81 83 84 86 88 89 91 93 93 96 95 93 87 82 78 74 74
82 80 81 88 85 85 85 86 82 77 73 71 73 76 78 80 80 81 82 81 80 80 81 83 84 85 87 91 91 95 98 100 100 101 104 104 103 98 95 95 96 91 87 87
87 83 84 84 88 91 93 95 91 89 86 85 83 84 84 86 85 85 87 88 90 91 91 94 94 97 101 104 104 103 103 105 108 108 107 106 103 104 105 102 99 97 94 89
85 89 89 86 89 92 98 95 93 93 91 93 93 90 90 93 96 97 98 98 99 99 100 99 102 103 103 105 107 110 111 112 110 108 105 101 97 93 91 90 89 87 85 83
81 89 92 92 92 93 90 90 94 95 95 97 98 98 99 99 100 102 103 103 104 105 107 107 108 110 111 111 108 105 104 103 97 96 94 92 88 82 83 87 79 78 77 77
76 81 86 93 93 94 92 91 92 93 96 97 98 99 98 99 101 103 105 106 107 107 109 108 107 107 106 101 98 96 95 93 90 88 88 86 84 79 79 86 77 75 67 62
64 72 79 85 91 95 97 97 98 97 98 99 100 102 103 105 106 107 107 108 108 107 105 103 100 97 95 92 88 88 87 86 85 83 82 82 81 78 77 82 80 79 74 77
61 64 69 76 81 85 91 96 98 101 102 102 102 102 102 101 101 99 98 97 96 95 94 93 90 89 88 86 84 82 81 81 81 81 82 81 80 77 75 77 82 83 83 85
59 62 65 66 69 74 80 83 85 88 91 93 94 94 93 92 92 91 90 88 87 87 87 86 85 84 82 80 78 75 73 74 74 77 75 78 78 78 78 77 79 83 85 86
53 57 61 65 68 70 72 74 75 76 77 79 81 82 82 82 83 83 84 83 83 83 83 81 81 78 76 74 74 73 73 74 73 75 71 72 74 74 75 76 78 81 85 88
47 50 53 57 61 64 67 70 73 74 75 77 78 78 78 80 81 80 80 79 76 71 70 68 71 74 73 71 71 70 72 70 69 69 69 69 70 69 67 70 74 77 83 87
49 51 55 58 62 64 66 68 70 72 73 75 75 75 75 73 71 68 65 64 63 65 68 69 73 75 74 71 69 69 69 69 67 68 67 65 66 69 68 67 70 72 76 80
49 51 53 55 58 60 63 64 64 65 65 66 65 65 64 63 62 61 61 61 60 59 60 59 61 64 66 65 65 64 65 65 65 65 66 66 67 67 68 67 68 72 74 76
43 45 47 49 51 53 54 55 57 58 59 59 60 59 59 57 57 56 55 55 55 55 55 54 54 55 57 58 59 59 59 60 61 62 63 64 65 66 68 69 71 72 74 76
44 47 49 50 50 52 52 53 54 55 55 55 55 55 55 55 55 56 56 56 56 57 58 58 57 57 56 55 56 57 58 58 59 60 62 63 65 67 68 70 71 74 76 77
40 43 45 47 49 51 52 53 54 54 54 54 56 57 57 58 59 59 60 60 60 60 61 60 60 60 59 59 59 59 59 60 61 62 63 64 65 67 68 71 72 74 76 77
42 44 46 48 50 51 51 53 53 54 54 55 55 55 55 55 55 56 56 56 56 57 57 58 59 59 59 59 60 60 61 61 62 63 65 66 67 68 69 70 71 71 72 73
46 47 49 50 51 51 52 52 52 52 52 52 52 52 52 52 51 51 51 51 51 51 51 52 52 52 52 54 55 56 58 59 60 61 61 63 64 65 66 68 69 71 72 73
51 51 51 51 51 50 49 50 48 47 49 47 46 47 48 47 47 48 49 50 50 51 51 52 52 53 54 55 56 57 58 59 61 62 63 65 66 68 69 70 71 71 71 71
Wind_Direction
203 208 212 202 204 207 209 213 214 217 220 220 226 233 234 238 245 247 247 253 256 261 262 262 262 267 269 270 269 267 271 280 278 282 290 290 291 293 298 306 307 292 275 278
206 208 208 208 210 212 211 213 217 221 225 225 228 233 239 248 247 246 245 251 258 260 261 263 265 266 266 269 266 266 264 267 273 279 288 290 287 288 292 302 309 311 295 276
209 209 207 209 209 215 219 217 217 219 223 226 233 235 237 246 254 255 256 253 255 260 263 263 260 262 262 262 263 265 262 266 268 274 281 287 286 280 282 297 302 302 304 282
213 210 206 211 211 216 219 219 220 224 228 234 237 244 241 243 249 249 252 253 258 261 265 263 257 258 257 261 262 262 261 276 270 272 281 285 280 271 276 294 298 299 299 295
213 211 211 211 218 216 223 223 222 225 234 238 238 239 244 248 250 252 255 259 258 263 264 259 258 257 257 255 259 260 263 266 269 273 278 277 276 277 290 295 296 296 296 296
213 216 215 219 219 221 225 227 224 228 230 235 239 241 245 247 249 255 257 258 258 256 255 256 258 258 257 260 262 264 268 266 263 263 268 274 278 284 289 292 293 294 292 288
214 214 216 223 219 224 227 228 230 233 234 234 239 242 241 244 249 252 253 256 257 258 259 261 262 268 267 265 260 255 255 257 263 270 272 276 278 278 280 282 285 288 287 286
215 217 217 221 223 226 229 231 231 234 234 237 238 239 241 245 248 252 254 255 257 257 262 264 264 263 260 258 256 255 255 257 260 265 273 277 279 279 276 277 279 282 284 286
216 218 220 222 225 226 227 230 235 234 235 239 243 246 251 253 254 249 254 257 258 259 259 262 262 260 259 262 267 270 270 271 272 275 275 278 279 280 279 278 275 274 273 276
216 219 223 225 226 227 228 229 231 235 238 239 240 242 245 248 253 253 253 253 256 257 257 257 260 261 260 266 270 271 274 274 276 277 278 279 279 279 280 280 280 277 273 274
217 220 223 226 229 230 231 230 233 234 237 239 242 244 245 248 250 252 254 255 256 257 258 260 262 264 266 269 271 272 273 273 273 275 276 275 275 275 274 274 274 275 275 275
220 220 226 227 230 233 232 233 237 239 241 241 243 246 249 251 252 254 256 258 260 261 264 264 266 268 269 269 271 273 274 274 275 276 276 274 274 274 273 271 271 271 270 269
221 225 225 229 231 236 237 239 238 241 243 244 247 249 251 254 256 257 259 261 262 264 266 267 268 271 272 272 273 275 276 276 275 275 275 274 272 271 270 268 267 266 267 266
226 228 230 232 234 238 240 241 244 244 244 247 250 253 255 256 258 259 261 263 264 266 268 269 270 274 275 275 275 275 275 275 274 273 273 272 270 268 266 267 267 265 263 259
231 232 233 235 238 240 243 244 246 248 250 252 253 255 257 259 260 262 264 266 268 270 271 272 272 272 273 274 274 274 273 273 272 272 270 269 268 266 263 264 263 262 256 245
231 233 234 236 240 243 246 248 249 251 253 255 257 259 261 264 266 267 267 268 269 270 271 272 273 274 275 275 274 273 271 270 268 267 267 267 267 266 264 261 262 261 260 260
235 237 239 240 241 244 247 249 251 252 255 257 260 261 263 265 267 268 269 271 272 273 275 276 276 275 273 272 272 271 269 267 266 264 263 264 264 264 263 261 259 261 260 260
241 242 243 244 245 246 250 253 256 258 259 261 262 264 266 268 269 271 273 274 274 274 273 273 273 271 269 268 267 266 265 265 266 267 268 266 266 265 264 263 261 259 259 259
251 251 250 250 251 252 253 255 257 259 261 262 264 266 268 269 269 270 272 273 274 274 272 270 269 269 268 266 266 265 266 268 268 268 268 269 269 269 267 265 263 262 260 259
247 247 248 250 251 254 256 258 260 262 263 264 266 268 270 272 273 273 273 273 271 270 270 268 268 270 273 273 272 270 269 270 270 270 271 271 269 268 269 266 265 265 263 263
253 254 256 257 258 260 263 265 267 268 269 270 271 271 271 271 271 272 273 274 273 273 273 272 272 271 273 273 273 272 270 270 269 267 266 268 268 267 268 267 266 265 265 266
266 267 267 268 268 269 269 268 267 268 270 271 271 273 273 273 273 274 273 274 275 275 275 275 274 274 275 274 273 272 271 270 269 269 268 268 268 267 267 267 267 267 267 268
264 266 267 269 269 269 269 268 269 270 270 271 272 273 275 276 277 278 278 278 279 279 279 279 278 277 276 275 274 274 272 271 270 270 268 268 267 268 268 268 268 269 270 271
261 262 262 263 263 265 266 267 268 270 271 273 274 274 275 275 276 277 278 278 279 278 278 278 278 279 278 278 277 276 275 274 273 273 273 273 272 271 272 272 272 273 274 274
276 275 275 274 275 276 276 276 276 276 276 276 276 277 277 277 277 278 278 278 278 279 279 279 278 278 278 278 278 278 277 277 277 276 276 276 276 276 276 276 276 277 278 278
284 284 283 282 282 282 283 283 284 284 283 282 282 281 281 280 280 279 279 278 278 277 277 276 276 276 276 277 277 277 277 278 278 278 278 278 278 278 278 278 278 278 278 279
286 287 287 287 287 286 286 286 287 286 284 283 282 280 280 278 277 277 276 276 276 276 275 275 275 274 274 274 274 273 273 274 274 274 274 275 276 276 276 277 278 279 279 280
Height
10388 10393 10402 10410 10416 10427 10441 10449 10459 10464 10472 10478 10482 10484 10488 10489 10501 10512 10516 10516 10521 10528 10533 10536 10538 10537 10537 10538 10539 10542 10544 10540 10540 10542 10542 10542 10541 10541 10540 10538 10538 10538 10537 10534
10375 10382 10392 10402 10415 10425 10429 10436 10446 10452 10458 10463 10467 10472 10473 10480 10496 10499 10502 10507 10512 10514 10522 10523 10526 10529 10528 10525 10525 10527 10531 10532 10530 10528 10529 10530 10530 10529 10529 10529 10527 10527 10526 10524
10362 10370 10382 10394 10402 10409 10416 10422 10429 10432 10439 10451 10451 10455 10470 10477 10479 10482 10486 10493 10499 10505 10507 10510 10512 10512 10512 10513 10515 10515 10515 10517 10519 10521 10519 10519 10518 10517 10515 10516 10518 10516 10516 10514
10349 10361 10373 10379 10389 10398 10403 10411 10419 10431 10441 10441 10446 10446 10463 10467 10466 10465 10470 10480 10490 10494 10493 10491 10495 10499 10500 10500 10506 10506 10503 10502 10503 10508 10510 10507 10506 10504 10502 10503 10501 10501 10501 10501
10340 10353 10363 10372 10379 10386 10392 10397 10409 10423 10427 10427 10436 10441 10449 10448 10449 10452 10463 10473 10482 10482 10478 10475 10476 10481 10484 10489 10489 10491 10492 10492 10490 10491 10495 10496 10493 10489 10487 10487 10486 10483 10483 10483
10332 10343 10355 10355 10366 10374 10379 10386 10404 10408 10412 10414 10422 10430 10433 10433 10432 10442 10452 10457 10462 10462 10450 10457 10461 10464 10467 10468 10475 10477 10476 10477 10477 10479 10480 10480 10480 10477 10471 10469 10467 10466 10465 10465
10319 10331 10342 10342 10355 10361 10365 10378 10392 10396 10399 10402 10408 10413 10412 10420 10423 10431 10435 10439 10440 10442 10441 10446 10449 10450 10450 10451 10452 10456 10461 10462 10462 10461 10462 10462 10462 10462 10460 10456 10453 10450 10448 10447
10310 10323 10332 10329 10338 10344 10354 10364 10374 10380 10385 10387 10391 10392 10398 10406 10410 10416 10418 10420 10422 10426 10427 10428 10430 10433 10434 10435 10436 10436 10437 10440 10444 10445 10444 10441 10440 10440 10441 10440 10437 10435 10431 10428
10299 10305 10312 10318 10325 10333 10346 10356 10364 10362 10363 10369 10374 10377 10385 10388 10395 10399 10400 10403 10405 10408 10412 10412 10413 10414 10414 10414 10415 10416 10416 10416 10418 10419 10421 10420 10418 10417 10417 10416 10418 10418 10415 10411
10285 10293 10299 10303 10313 10321 10329 10336 10342 10345 10353 10359 10362 10365 10370 10369 10375 10379 10382 10384 10387 10390 10392 10394 10395 10396 10396 10395 10394 10394 10392 10393 10391 10390 10392 10393 10392 10391 10388 10386 10386 10387 10390 10391
10271 10281 10284 10291 10297 10302 10307 10316 10327 10333 10338 10341 10345 10348 10352 10351 10355 10359 10361 10364 10366 10369 10371 10373 10374 10375 10374 10373 10372 10371 10369 10369 10368 10365 10363 10363 10364 10366 10364 10359 10358 10359 10358 10360
10258 10267 10267 10277 10278 10281 10290 10302 10312 10317 10321 10323 10327 10330 10333 10333 10336 10339 10341 10344 10345 10346 10346 10347 10348 10348 10347 10345 10344 10343 10340 10337 10335 10333 10331 10330 10328 10329 10328 10329 10328 10330 10329 10331
10239 10242 10254 10259 10264 10268 10279 10287 10296 10298 10303 10307 10309 10312 10314 10317 10317 10318 10319 10321 10321 10321 10321 10320 10319 10318 10315 10314 10311 10309 10307 10306 10302 10300 10299 10297 10298 10300 10296 10294 10301 10301 10302 10300
10228 10235 10243 10250 10255 10257 10264 10272 10273 10280 10285 10287 10289 10290 10292 10294 10295 10294 10294 10295 10294 10294 10294 10292 10290 10288 10285 10283 10281 10279 10277 10274 10273 10272 10269 10268 10268 10272 10271 10266 10272 10275 10278 10269
10219 10225 10230 10236 10240 10244 10247 10253 10257 10260 10262 10264 10267 10268 10268 10269 10270 10270 10269 10268 10267 10266 10264 10263 10262 10259 10258 10257 10256 10253 10249 10247 10244 10243 10241 10240 10240 10243 10245 10241 10244 10246 10253 10250
10207 10210 10215 10220 10224 10228 10231 10234 10238 10239 10238 10240 10241 10242 10243 10243 10243 10243 10243 10242 10241 10240 10238 10236 10234 10232 10230 10228 10226 10224 10221 10219 10218 10217 10215 10215 10215 10216 10218 10218 10215 10217 10218 10220
10193 10198 10202 10206 10212 10213 10212 10214 10217 10220 10219 10219 10218 10218 10219 10220 10219 10217 10216 10214 10213 10212 10210 10208 10205 10204 10201 10199 10197 10196 10194 10192 10190 10189 10191 10189 10189 10190 10191 10194 10193 10191 10190 10190
10182 10185 10189 10192 10194 10196 10196 10196 10196 10198 10200 10198 10197 10196 10196 10195 10194 10193 10192 10190 10188 10186 10183 10181 10177 10176 10174 10173 10170 10169 10169 10167 10167 10166 10167 10167 10166 10167 10167 10169 10169 10168 10166 10165
10171 10173 10175 10177 10178 10180 10180 10179 10178 10177 10177 10177 10176 10176 10174 10172 10171 10169 10168 10166 10164 10163 10159 10157 10153 10150 10149 10149 10148 10147 10146 10146 10145 10145 10144 10145 10144 10144 10145 10145 10146 10145 10144 10142
10154 10156 10157 10157 10157 10158 10159 10160 10159 10158 10157 10156 10156 10156 10155 10154 10152 10149 10147 10144 10142 10139 10136 10133 10130 10128 10127 10128 10128 10127 10127 10126 10126 10125 10124 10124 10122 10121 10121 10121 10121 10121 10121 10120
10142 10142 10143 10144 10144 10143 10143 10142 10142 10141 10139 10137 10136 10134 10132 10130 10128 10125 10122 10119 10118 10116 10114 10112 10110 10108 10107 10106 10105 10105 10105 10104 10104 10103 10102 10101 10100 10099 10099 10099 10098 10096 10096 10095
10130 10130 10129 10128 10126 10125 10123 10122 10120 10118 10116 10114 10112 10110 10108 10106 10104 10102 10101 10099 10098 10096 10094 10092 10090 10089 10087 10085 10084 10083 10082 10082 10081 10080 10079 10079 10078 10077 10076 10076 10076 10074 10072 10071
10114 10112 10111 10110 10108 10106 10104 10102 10100 10098 10096 10094 10093 10091 10089 10088 10086 10084 10083 10081 10079 10078 10076 10074 10072 10070 10068 10066 10065 10063 10062 10061 10060 10059 10058 10057 10056 10054 10053 10052 10050 10048 10047 10045
10100 10098 10096 10093 10091 10089 10087 10085 10083 10081 10079 10078 10076 10074 10072 10071 10069 10067 10065 10063 10062 10060 10058 10056 10053 10050 10049 10047 10045 10043 10042 10040 10039 10038 10036 10035 10034 10032 10030 10029 10028 10026 10022 10019
10090 10087 10084 10081 10078 10075 10072 10069 10067 10065 10063 10061 10059 10057 10055 10053 10052 10050 10048 10046 10044 10042 10040 10037 10035 10033 10031 10028 10026 10024 10023 10020 10019 10017 10016 10014 10013 10011 10009 10007 10003 10001 9999 9995
10073 10070 10066 10063 10060 10057 10054 10051 10049 10046 10043 10041 10039 10037 10035 10034 10032 10029 10027 10025 10023 10021 10019 10017 10015 10013 10011 10009 10007 10005 10003 10001 9999 9997 9995 9992 9990 9988 9984 9982 9979 9976 9973 9969
10056 10052 10049 10045 10042 10038 10036 10032 10029 10028 10023 10021 10019 10018 10015 10013 10011 10010 10007 10005 10003 10001 9999 9997 9994 9992 9990 9988 9986 9984 9983 9980 9977 9975 9973 9970 9967 9964 9961 9958 9955 9952 9948 9945